• In Hungary
  • List of Countries
  • For 7 days
  • Water Temperature
  • Satellite Maps
  • Weather Map
  • News
  • Weather Widgets
  • user-avatar
    Login

    Hourly Weather Grylevo

    Today, 22 April, Sunday

    Time Temperature Precipitation Wind Pressure Humidity
    00:00 +3°C° 0 mm 5 mps 729 mmHg 76%
    01:00 +3°C° 0 mm 5 mps 729 mmHg 79%
    02:00 +4°C° 0 mm 3 mps 729 mmHg 82%
    03:00 +3°C° 0.1 mm 3 mps 729 mmHg 83%
    04:00 +3°C° 0.1 mm 4 mps 729 mmHg 84%
    05:00 +1°C° 0.1 mm 4 mps 729 mmHg 85%
    06:00 +3°C° 0.1 mm 4 mps 730 mmHg 81%
    07:00 +3°C° 0.1 mm 4 mps 730 mmHg 77%
    08:00 +3°C° 0 mm 4 mps 730 mmHg 73%
    09:00 +4°C° 0.1 mm 4 mps 731 mmHg 70%
    10:00 +4°C° 0.1 mm 4 mps 731 mmHg 66%
    11:00 +4°C° 0.1 mm 4 mps 732 mmHg 63%
    12:00 +4°C° 0 mm 4 mps 732 mmHg 62%
    13:00 +3°C° 0 mm 5 mps 733 mmHg 61%
    14:00 +3°C° 0 mm 5 mps 733 mmHg 59%
    15:00 +4°C° 0 mm 4 mps 734 mmHg 59%
    16:00 +4°C° 0 mm 4 mps 734 mmHg 59%
    17:00 +3°C° 0 mm 4 mps 735 mmHg 58%
    18:00 +3°C° 0 mm 4 mps 735 mmHg 61%
    19:00 +2°C° 0 mm 3 mps 736 mmHg 64%
    20:00 +2°C° 0 mm 2 mps 736 mmHg 67%
    21:00 +1°C° 0 mm 2 mps 737 mmHg 71%
    22:00 -1°C° 0 mm 2 mps 737 mmHg 75%
    23:00 -2°C° 0 mm 2 mps 738 mmHg 79%

    Tomorrow, 23 April, Monday

    Time Temperature Precipitation Wind Pressure Humidity
    00:00 -2°C° 0 mm 2 mps 738 mmHg 80%
    01:00 -3°C° 0 mm 2 mps 739 mmHg 82%
    02:00 -1°C° 0 mm 1 mps 739 mmHg 84%
    03:00 -1°C° 0 mm 1 mps 739 mmHg 83%
    04:00 -1°C° 0 mm 1 mps 740 mmHg 82%
    05:00 -1°C° 0 mm 1 mps 740 mmHg 81%
    06:00 0°C° 0 mm 1 mps 740 mmHg 70%
    07:00 +1°C° 0 mm 2 mps 741 mmHg 60%
    08:00 +3°C° 0 mm 2 mps 741 mmHg 49%
    09:00 +4°C° 0 mm 2 mps 741 mmHg 44%
    10:00 +5°C° 0 mm 2 mps 741 mmHg 39%
    11:00 +6°C° 0 mm 2 mps 741 mmHg 34%
    12:00 +7°C° 0 mm 2 mps 741 mmHg 33%
    13:00 +8°C° 0 mm 2 mps 741 mmHg 32%
    14:00 +8°C° 0 mm 2 mps 740 mmHg 31%
    15:00 +8°C° 0 mm 2 mps 740 mmHg 33%
    16:00 +8°C° 0 mm 2 mps 740 mmHg 35%
    17:00 +8°C° 0 mm 1 mps 740 mmHg 36%
    18:00 +6°C° 0 mm 1 mps 740 mmHg 43%
    19:00 +4°C° 0 mm 1 mps 740 mmHg 50%
    20:00 +2°C° 0 mm 0 mps 740 mmHg 57%
    21:00 +2°C° 0 mm 1 mps 740 mmHg 59%
    22:00 +2°C° 0 mm 1 mps 739 mmHg 61%
    23:00 +1°C° 0 mm 1 mps 739 mmHg 63%

    Day after tomorrow, 24 April, Tuesday

    Time Temperature Precipitation Wind Pressure Humidity
    00:00 +1°C° 0 mm 1 mps 739 mmHg 64%
    01:00 +1°C° 0 mm 1 mps 739 mmHg 66%
    02:00 -2°C° 0 mm 2 mps 739 mmHg 67%
    03:00 -1°C° 0 mm 2 mps 738 mmHg 66%
    04:00 -1°C° 0 mm 2 mps 738 mmHg 66%
    05:00 -1°C° 0 mm 2 mps 738 mmHg 65%
    06:00 +2°C° 0 mm 2 mps 738 mmHg 61%
    07:00 +4°C° 0 mm 2 mps 737 mmHg 56%
    08:00 +4°C° 0 mm 3 mps 737 mmHg 51%
    09:00 +5°C° 0.1 mm 3 mps 737 mmHg 50%
    10:00 +8°C° 0.1 mm 3 mps 736 mmHg 49%
    11:00 +8°C° 0.1 mm 4 mps 736 mmHg 48%
    12:00 +8°C° 0 mm 4 mps 736 mmHg 50%
    13:00 +10°C° 0 mm 4 mps 735 mmHg 51%
    14:00 +10°C° 0 mm 4 mps 735 mmHg 52%
    15:00 +9°C° 0.2 mm 3 mps 735 mmHg 61%
    16:00 +8°C° 0.2 mm 3 mps 734 mmHg 70%
    17:00 +7°C° 0.2 mm 3 mps 734 mmHg 78%
    18:00 +7°C° 0.2 mm 2 mps 734 mmHg 83%
    19:00 +6°C° 0.2 mm 2 mps 734 mmHg 88%
    20:00 +6°C° 0.2 mm 2 mps 734 mmHg 93%
    21:00 +5°C° 0 mm 2 mps 733 mmHg 95%
    22:00 +5°C° 0 mm 2 mps 733 mmHg 96%
    23:00 +5°C° 0 mm 2 mps 733 mmHg 97%

    25 April, Wednesday

    Time Temperature Precipitation Wind Pressure Humidity
    00:00 +4°C° 0 mm 2 mps 733 mmHg 97%
    01:00 +4°C° 0 mm 2 mps 733 mmHg 97%
    02:00 +4°C° 0 mm 2 mps 733 mmHg 97%
    03:00 +4°C° 0 mm 2 mps 733 mmHg 97%
    04:00 +4°C° 0 mm 2 mps 732 mmHg 96%
    05:00 +4°C° 0 mm 2 mps 732 mmHg 96%
    06:00 +4°C° 0.1 mm 3 mps 732 mmHg 93%
    07:00 +5°C° 0.1 mm 3 mps 732 mmHg 90%
    08:00 +5°C° 0.1 mm 4 mps 732 mmHg 88%
    09:00 +6°C° 0 mm 4 mps 731 mmHg 87%
    10:00 +7°C° 0 mm 4 mps 731 mmHg 86%
    11:00 +7°C° 0 mm 4 mps 731 mmHg 85%
    12:00 +7°C° 0.4 mm 4 mps 731 mmHg 86%
    13:00 +7°C° 0.4 mm 4 mps 730 mmHg 86%
    14:00 +8°C° 0.4 mm 4 mps 730 mmHg 87%
    15:00 +8°C° 0.7 mm 4 mps 730 mmHg 84%
    16:00 +8°C° 0.7 mm 4 mps 729 mmHg 80%
    17:00 +8°C° 0.7 mm 5 mps 729 mmHg 77%
    18:00 +7°C° 0.1 mm 4 mps 730 mmHg 80%
    19:00 +6°C° 0.1 mm 4 mps 730 mmHg 83%
    20:00 +5°C° 0.1 mm 3 mps 730 mmHg 87%
    21:00 +4°C° 0 mm 3 mps 730 mmHg 88%
    22:00 +4°C° 0 mm 3 mps 731 mmHg 90%
    23:00 +4°C° 0 mm 2 mps 731 mmHg 92%

    26 April, Thursday

    Time Temperature Precipitation Wind Pressure Humidity
    00:00 +3°C° 0 mm 3 mps 731 mmHg 92%
    01:00 +3°C° 0 mm 3 mps 731 mmHg 91%
    02:00 +3°C° 0 mm 3 mps 731 mmHg 91%
    03:00 +3°C° 0 mm 3 mps 731 mmHg 91%
    04:00 +3°C° 0 mm 3 mps 731 mmHg 90%
    05:00 +3°C° 0 mm 3 mps 731 mmHg 90%
    06:00 +4°C° 0 mm 3 mps 731 mmHg 88%
    07:00 +4°C° 0 mm 3 mps 732 mmHg 86%
    08:00 +5°C° 0 mm 3 mps 732 mmHg 85%
    09:00 +7°C° 0 mm 3 mps 732 mmHg 80%
    10:00 +8°C° 0 mm 3 mps 732 mmHg 76%
    11:00 +9°C° 0 mm 3 mps 733 mmHg 72%
    12:00 +10°C° 0.2 mm 4 mps 733 mmHg 65%
    13:00 +11°C° 0.2 mm 4 mps 733 mmHg 59%
    14:00 +12°C° 0.2 mm 4 mps 733 mmHg 52%
    15:00 +12°C° 0.2 mm 4 mps 733 mmHg 54%
    16:00 +12°C° 0.2 mm 3 mps 733 mmHg 55%
    17:00 +11°C° 0.2 mm 3 mps 733 mmHg 56%
    18:00 +10°C° 0 mm 3 mps 734 mmHg 63%
    19:00 +8°C° 0 mm 2 mps 734 mmHg 70%
    20:00 +7°C° 0 mm 2 mps 734 mmHg 77%
    21:00 +6°C° 0 mm 2 mps 734 mmHg 79%
    22:00 +6°C° 0 mm 2 mps 734 mmHg 82%
    23:00 +6°C° 0 mm 2 mps 735 mmHg 84%

    27 April, Friday

    Time Temperature Precipitation Wind Pressure Humidity
    00:00 +6°C° 0.1 mm 2 mps 734 mmHg 86%
    01:00 +6°C° 0.1 mm 2 mps 734 mmHg 88%
    02:00 +5°C° 0.1 mm 3 mps 734 mmHg 90%
    03:00 +6°C° 0.2 mm 2 mps 734 mmHg 92%
    04:00 +6°C° 0.2 mm 2 mps 734 mmHg 94%
    05:00 +6°C° 0.2 mm 2 mps 734 mmHg 96%
    06:00 +7°C° 0 mm 2 mps 734 mmHg 92%
    07:00 +8°C° 0 mm 2 mps 734 mmHg 88%
    08:00 +9°C° 0 mm 2 mps 734 mmHg 84%
    09:00 +10°C° 0.1 mm 2 mps 734 mmHg 77%
    10:00 +11°C° 0.1 mm 3 mps 734 mmHg 69%
    11:00 +12°C° 0.1 mm 3 mps 734 mmHg 62%
    12:00 +12°C° 0.3 mm 3 mps 734 mmHg 60%
    13:00 +12°C° 0.3 mm 3 mps 734 mmHg 58%
    14:00 +13°C° 0.3 mm 4 mps 734 mmHg 56%
    15:00 +12°C° 0.2 mm 4 mps 734 mmHg 57%
    16:00 +12°C° 0.2 mm 4 mps 734 mmHg 59%
    17:00 +11°C° 0.2 mm 4 mps 734 mmHg 60%
    18:00 +10°C° 0.1 mm 3 mps 734 mmHg 67%
    19:00 +8°C° 0.1 mm 3 mps 735 mmHg 74%
    20:00 +7°C° 0.1 mm 3 mps 735 mmHg 81%
    21:00 +5°C° 0 mm 3 mps 736 mmHg 83%
    22:00 +4°C° 0 mm 3 mps 736 mmHg 85%
    23:00 +4°C° 0 mm 3 mps 737 mmHg 86%
    Show more